Wind_Speed
5 5 5 6 6 6 6 5 5 5 5 5 5 6 6 6 6 5 5 5 5 5 5 6 5 5 5 5 5 5 5 5 5 5 6 6 6 7 7 7 8 7 7
5 5 5 6 6 6 6 6 6 5 5 5 6 6 6 6 6 5 6 5 5 6 6 6 6 6 6 6 6 6 6 6 6 7 6 6 6 7 7 8 8 8 8
5 5 5 6 6 6 6 6 6 6 6 6 7 7 7 6 6 6 7 7 6 6 6 7 7 7 6 7 7 6 6 7 7 7 7 7 7 7 8 8 8 8 8
6 6 6 6 6 6 6 6 7 7 7 7 7 7 7 7 7 7 8 7 7 7 7 8 8 8 8 7 7 7 7 8 8 8 7 7 7 8 8 8 8 9 9
6 6 6 6 7 7 7 7 7 7 7 7 7 7 8 8 8 8 8 7 8 8 8 8 8 9 8 8 8 8 8 8 8 9 8 8 8 8 9 9 9 10 10
6 6 6 7 7 7 7 7 7 7 7 7 7 8 8 8 8 8 8 8 8 8 8 8 8 8 9 9 9 9 8 9 9 9 9 9 9 9 9 10 10 10 10
7 7 7 7 7 7 7 7 7 7 7 7 8 8 8 8 7 7 7 8 8 8 8 8 8 8 9 9 9 9 9 9 9 9 10 10 10 10 10 10 10 10 10
8 8 8 7 7 7 7 8 7 7 7 8 8 8 8 8 7 7 7 7 8 8 8 9 9 8 9 9 9 9 10 10 10 10 10 10 11 11 11 11 11 11 10
8 8 8 8 7 7 7 8 7 7 7 8 8 8 8 8 8 8 8 8 8 8 9 9 9 9 9 9 10 10 10 10 11 11 11 11 11 11 11 11 12 11 11
7 8 8 8 7 7 7 7 7 8 8 8 8 8 8 8 8 8 8 8 9 9 9 10 10 10 10 10 10 11 10 10 10 11 11 11 11 11 11 11 12 12 12
7 8 8 8 7 7 7 7 8 8 8 8 8 8 8 8 9 8 8 8 8 9 9 10 10 10 10 10 11 11 11 10 10 10 11 11 11 12 12 12 12 11 11
8 8 8 8 7 8 8 8 8 8 8 8 8 8 9 9 8 8 8 8 8 9 10 10 10 10 10 10 10 11 11 10 10 11 11 11 11 11 11 11 10 11 11
8 8 8 8 8 8 8 8 9 9 9 9 9 8 8 8 8 8 8 8 9 9 9 9 10 10 10 10 10 11 11 10 10 11 11 11 11 11 11 10 10 10 11
8 9 9 9 8 9 9 9 9 9 9 9 9 9 9 8 8 9 8 8 8 9 9 9 9 10 10 10 10 10 10 10 10 10 11 11 11 11 11 10 10 10 10
8 9 9 9 8 8 9 9 9 9 9 9 9 9 9 9 8 8 8 8 8 8 8 9 9 9 10 10 9 9 9 9 10 10 10 10 10 10 10 10 10 10 9
8 9 8 8 8 8 9 10 10 9 9 9 9 9 9 8 8 8 8 7 7 7 8 9 8 9 10 10 10 10 10 10 10 10 10 9 9 9 10 10 9 9 9
9 9 9 9 9 9 9 10 10 10 9 9 9 9 9 8 8 8 8 8 8 7 7 8 8 9 10 9 10 10 10 9 9 10 9 8 9 9 9 9 9 9 9
9 10 10 10 10 10 10 10 10 10 10 10 10 9 9 9 8 8 8 8 9 9 8 9 8 8 9 9 10 9 10 9 9 9 9 9 9 8 8 8 8 9 9
10 10 10 10 10 10 10 11 11 11 11 10 10 9 9 9 9 9 9 9 10 9 9 9 9 9 9 9 9 10 10 10 9 9 9 9 9 9 8 8 8 8 8
10 10 10 10 11 11 11 11 12 11 11 10 10 10 9 9 10 10 10 10 10 10 10 10 9 10 10 10 10 10 10 10 10 9 9 9 9 9 9 9 9 8 8
11 10 10 11 12 12 11 12 12 12 11 11 10 10 9 9 9 9 9 10 10 11 11 11 10 10 10 11 10 10 10 10 10 10 10 10 9 9 9 9 9 8 8
11 11 12 12 12 12 12 12 13 12 11 11 11 10 10 9 9 8 9 9 10 11 12 11 11 11 12 12 11 11 10 11 10 10 11 10 11 10 9 9 9 9 9
12 12 13 13 13 13 13 13 13 12 12 11 11 11 11 10 9 9 10 10 11 11 11 11 12 12 12 12 12 11 11 11 11 11 11 11 11 11 11 10 10 10 10
12 13 13 13 13 13 13 13 13 12 12 12 11 12 11 10 10 10 10 10 11 11 11 12 12 11 11 12 12 12 12 11 11 11 11 11 12 12 12 12 11 11 11
13 13 14 13 13 13 13 13 13 13 13 12 12 12 12 11 11 10 10 11 11 11 11 11 11 11 12 13 13 12 12 12 11 12 12 12 13 13 13 12 12 12 11
14 14 14 13 13 13 13 13 13 13 13 13 13 13 12 12 11 12 12 12 12 12 12 12 12 12 12 12 13 13 12 12 12 12 12 13 13 14 14 13 13 13 12
Wind_Direction
334 336 327 322 317 314 313 311 304 298 296 293 289 291 287 282 282 275 276 275 265 262 268 272 274 271 268 267 262 259 255 252 251 253 248 245 243 239 240 237 239 243 244
335 326 320 316 315 315 314 306 300 298 295 296 295 294 295 285 281 275 276 278 271 265 265 266 268 267 268 266 264 263 259 256 255 254 253 250 243 240 241 240 242 247 250
335 325 322 321 321 318 316 309 301 297 296 295 298 294 294 289 281 276 274 273 269 266 265 264 267 265 265 264 264 261 257 255 252 250 248 245 244 243 244 246 247 250 252
334 328 326 323 323 321 316 309 302 298 297 297 297 297 299 295 290 282 276 268 266 265 267 267 267 264 263 263 261 258 256 252 251 252 248 246 249 249 249 251 253 255 256
335 330 326 324 323 319 315 308 303 302 299 295 293 292 293 289 286 284 280 272 264 265 267 268 269 263 261 259 257 258 258 257 254 253 253 253 254 255 253 253 256 257 258
335 331 330 322 319 317 316 311 306 302 300 294 292 291 289 286 284 282 281 277 269 269 269 268 268 263 259 260 260 257 256 254 253 254 255 256 258 262 261 259 260 261 261
327 327 327 323 318 314 315 314 306 302 297 294 293 292 290 290 288 284 279 274 271 270 268 266 267 262 259 261 262 260 257 255 252 253 255 257 260 263 266 265 264 265 263
322 324 322 322 319 312 310 311 308 304 301 297 295 292 289 288 287 283 279 275 268 264 262 265 266 262 260 260 260 261 259 258 254 253 256 259 261 263 264 263 261 262 263
319 321 321 321 317 312 309 310 310 307 304 299 296 294 289 288 287 283 278 272 266 261 261 264 265 263 262 259 258 261 263 262 258 257 258 260 262 262 264 264 260 260 261
319 320 319 317 314 315 314 311 309 308 304 299 296 295 293 288 285 284 279 271 266 267 267 264 264 265 265 261 257 258 260 262 261 261 262 263 263 262 264 265 263 261 262
324 322 319 315 310 311 313 313 310 307 306 301 295 295 292 288 286 283 278 273 271 270 268 262 262 265 266 263 261 259 259 260 261 262 264 266 265 264 265 265 264 264 266
325 323 319 316 315 313 312 310 307 304 302 297 293 292 288 286 283 281 276 275 274 273 267 264 265 267 268 266 263 260 259 261 263 266 265 264 264 264 263 263 264 267 268
322 324 323 321 319 317 314 310 307 304 299 295 291 288 286 286 281 279 274 271 273 272 268 267 266 266 265 265 262 261 261 262 262 265 264 260 261 262 263 263 265 267 268
322 320 321 318 318 315 313 310 311 307 302 297 293 291 288 288 282 278 276 274 273 269 266 268 267 265 264 262 260 262 260 258 259 261 261 257 257 261 263 264 264 265 267
324 323 322 318 317 315 311 311 311 307 302 299 296 293 291 287 285 279 275 273 272 269 265 265 265 262 262 260 259 258 258 257 259 261 261 255 258 261 262 262 263 262 264
323 325 323 320 318 315 311 309 310 309 305 302 298 293 290 286 283 278 273 270 269 270 266 262 265 265 261 261 258 257 256 258 262 261 254 253 260 263 263 258 261 265 264
319 319 323 322 320 317 313 309 308 307 305 303 298 292 288 284 281 278 274 270 269 272 271 265 264 267 264 260 257 255 255 259 262 259 257 254 257 259 257 256 260 266 266
311 311 313 315 315 314 312 309 305 306 304 300 296 289 286 281 278 272 271 267 270 274 272 269 268 269 265 258 255 254 254 258 261 257 254 253 256 254 251 253 262 270 268
305 306 308 312 314 312 310 308 305 304 304 299 294 290 283 278 274 269 267 267 268 271 272 269 266 265 265 259 256 256 254 258 260 254 253 255 256 256 256 259 261 262 265
301 302 305 309 311 312 309 307 305 305 304 300 293 289 285 280 273 267 265 263 267 270 271 271 270 267 267 264 258 253 255 260 262 258 259 258 256 261 259 260 263 259 263
300 299 301 305 309 311 308 308 306 305 303 298 294 290 285 282 277 270 262 261 266 270 268 269 270 268 267 266 261 256 257 259 262 262 261 255 255 260 260 263 261 261 264
294 295 297 299 302 306 308 307 306 303 301 297 293 290 287 282 278 269 264 264 266 267 265 267 267 268 267 265 260 258 258 260 263 264 260 255 253 258 261 263 261 261 263
291 294 297 296 299 301 303 304 305 300 300 297 296 291 287 283 274 266 263 264 268 269 268 266 265 263 263 261 260 258 257 263 264 261 260 257 255 258 258 259 261 262 262
291 294 296 296 296 300 301 299 299 300 298 295 293 290 287 282 277 272 269 269 268 269 268 265 265 263 262 261 262 260 258 261 264 266 263 259 258 259 259 260 261 263 262
291 292 293 295 295 298 301 298 294 294 294 290 288 287 286 281 278 274 273 273 270 267 265 267 265 265 263 263 261 260 260 259 262 264 263 261 258 256 257 258 258 262 263
291 290 290 293 293 296 300 298 295 293 293 291 287 286 282 277 275 274 272 274 272 268 264 267 267 265 263 262 260 259 260 261 261 265 265 262 259 258 257 255 256 259 261
Height
5865 5864 5864 5863 5863 5863 5862 5862 5861 5861 5861 5860 5860 5861 5861 5861 5861 5862 5862 5862 5862 5863 5863 5863 5863 5863 5864 5864 5864 5865 5865 5865 5866 5866 5866 5867 5868 5868 5869 5869 5870 5871 5871
5864 5864 5863 5863 5862 5862 5861 5861 5860 5860 5860 5860 5859 5860 5860 5860 5860 5860 5861 5861 5861 5861 5862 5862 5862 5862 5862 5863 5863 5863 5864 5864 5865 5865 5865 5866 5866 5867 5867 5868 5868 5869 5870
5863 5863 5863 5862 5861 5861 5860 5860 5859 5859 5859 5859 5858 5858 5858 5858 5859 5859 5859 5859 5860 5860 5860 5861 5861 5861 5861 5861 5862 5862 5862 5863 5863 5863 5864 5864 5865 5865 5866 5866 5867 5867 5868
5863 5862 5862 5861 5861 5860 5859 5859 5858 5858 5858 5857 5857 5857 5857 5857 5857 5857 5857 5858 5858 5858 5859 5859 5859 5859 5860 5860 5860 5861 5861 5861 5862 5862 5863 5863 5864 5864 5864 5865 5865 5866 5866
5862 5862 5861 5860 5860 5859 5858 5858 5857 5857 5856 5856 5856 5856 5855 5855 5855 5856 5856 5856 5856 5857 5857 5857 5857 5858 5858 5858 5859 5859 5859 5860 5860 5861 5861 5862 5862 5862 5862 5863 5863 5864 5864
5862 5861 5860 5859 5858 5858 5857 5857 5856 5855 5855 5855 5854 5854 5854 5854 5854 5854 5854 5854 5855 5855 5855 5855 5855 5856 5856 5857 5857 5857 5857 5858 5858 5859 5859 5860 5860 5860 5861 5861 5861 5861 5861
5861 5860 5859 5858 5857 5857 5856 5855 5855 5854 5854 5853 5853 5853 5852 5852 5852 5852 5852 5853 5853 5853 5853 5853 5853 5854 5854 5854 5855 5855 5855 5856 5856 5857 5857 5858 5858 5858 5859 5859 5859 5859 5859
5860 5859 5858 5857 5856 5855 5855 5854 5853 5853 5852 5852 5851 5851 5851 5850 5850 5850 5850 5851 5851 5851 5851 5851 5852 5852 5852 5852 5853 5853 5854 5854 5854 5855 5855 5855 5856 5856 5856 5856 5857 5857 5857
5859 5858 5857 5856 5855 5854 5853 5853 5852 5851 5851 5850 5850 5849 5849 5849 5849 5849 5849 5849 5849 5849 5849 5849 5850 5850 5850 5850 5851 5851 5851 5852 5852 5852 5853 5853 5853 5853 5854 5854 5854 5854 5855
5858 5857 5856 5855 5854 5853 5852 5851 5851 5850 5849 5849 5848 5848 5847 5847 5847 5847 5846 5847 5847 5847 5847 5847 5847 5847 5848 5848 5848 5849 5849 5850 5850 5850 5850 5850 5851 5851 5851 5851 5851 5852 5852
5857 5856 5855 5854 5853 5852 5851 5850 5849 5848 5848 5847 5846 5846 5846 5845 5845 5845 5844 5845 5845 5845 5845 5845 5845 5845 5845 5846 5846 5846 5847 5847 5848 5848 5848 5848 5848 5848 5848 5849 5849 5849 5849
5856 5855 5854 5852 5851 5850 5849 5849 5848 5847 5846 5845 5845 5844 5844 5843 5843 5843 5843 5843 5843 5843 5843 5843 5843 5843 5843 5843 5844 5844 5844 5845 5845 5845 5845 5846 5846 5846 5846 5846 5846 5847 5847
5855 5854 5852 5851 5850 5849 5848 5847 5846 5845 5844 5844 5843 5842 5842 5841 5841 5841 5841 5841 5841 5841 5841 5840 5841 5841 5841 5841 5842 5842 5842 5842 5843 5843 5843 5843 5843 5843 5843 5844 5844 5844 5844
5853 5852 5851 5849 5848 5847 5846 5845 5844 5843 5843 5842 5841 5841 5840 5840 5839 5839 5839 5839 5839 5838 5838 5838 5838 5839 5839 5839 5839 5840 5840 5840 5840 5840 5840 5840 5840 5840 5841 5841 5842 5842 5842
5852 5850 5849 5848 5847 5846 5845 5844 5843 5842 5841 5840 5839 5839 5838 5838 5837 5837 5837 5837 5837 5836 5836 5836 5836 5836 5836 5836 5837 5837 5837 5837 5838 5838 5837 5837 5838 5838 5838 5839 5839 5840 5840
5850 5849 5847 5846 5845 5844 5843 5842 5841 5840 5839 5838 5837 5836 5836 5835 5835 5835 5835 5835 5835 5834 5834 5834 5834 5834 5834 5834 5834 5835 5835 5835 5835 5835 5835 5835 5835 5836 5836 5837 5837 5838 5838
5848 5847 5846 5844 5843 5842 5841 5840 5839 5837 5836 5836 5835 5834 5833 5833 5833 5833 5833 5833 5833 5832 5832 5832 5832 5832 5832 5832 5832 5832 5833 5833 5833 5833 5833 5833 5833 5834 5834 5835 5835 5835 5835
5846 5845 5844 5843 5841 5840 5839 5838 5837 5835 5834 5833 5832 5832 5831 5831 5830 5830 5830 5831 5831 5830 5830 5830 5830 5830 5830 5830 5830 5830 5831 5831 5831 5831 5831 5831 5831 5832 5832 5833 5833 5833 5833
5844 5843 5842 5841 5839 5838 5837 5836 5835 5833 5832 5831 5830 5829 5828 5828 5828 5828 5828 5828 5828 5828 5828 5828 5828 5828 5828 5828 5828 5828 5828 5829 5829 5829 5829 5830 5830 5830 5831 5831 5831 5831 5831
5842 5841 5840 5839 5837 5836 5835 5833 5832 5831 5829 5828 5827 5826 5826 5826 5825 5825 5825 5825 5826 5826 5826 5826 5826 5825 5825 5825 5825 5826 5826 5826 5827 5827 5827 5828 5828 5828 5829 5829 5829 5829 5829
5839 5838 5837 5836 5835 5833 5832 5831 5829 5828 5827 5826 5825 5824 5823 5823 5823 5822 5822 5823 5823 5823 5823 5823 5823 5823 5823 5823 5823 5823 5824 5824 5825 5825 5825 5826 5826 5826 5827 5827 5827 5827 5827
5837 5836 5835 5834 5832 5831 5829 5828 5827 5826 5824 5823 5822 5821 5821 5820 5820 5820 5820 5820 5820 5820 5820 5820 5820 5820 5820 5820 5821 5821 5822 5823 5822 5823 5823 5823 5824 5824 5825 5825 5825 5825 5826
5834 5833 5832 5831 5829 5828 5827 5825 5824 5823 5821 5820 5819 5819 5818 5817 5817 5817 5817 5817 5817 5817 5817 5817 5817 5817 5817 5818 5818 5819 5819 5820 5820 5820 5821 5821 5822 5822 5822 5823 5823 5823 5824
5830 5830 5828 5827 5826 5825 5824 5822 5821 5820 5819 5817 5817 5816 5815 5815 5814 5814 5814 5814 5814 5814 5814 5814 5814 5814 5815 5815 5815 5816 5816 5817 5817 5818 5818 5818 5819 5819 5820 5820 5820 5821 5821
5827 5826 5825 5824 5822 5821 5820 5819 5818 5816 5815 5814 5813 5813 5812 5811 5811 5811 5811 5811 5811 5811 5811 5811 5811 5811 5812 5812 5812 5813 5813 5814 5814 5815 5815 5816 5816 5816 5817 5817 5817 5818 5818
5823 5822 5821 5820 5819 5818 5816 5815 5814 5813 5812 5811 5810 5809 5808 5808 5808 5808 5808 5808 5808 5808 5808 5808 5808 5808 5809 5809 5809 5810 5810 5811 5811 5812 5812 5812 5813 5813 5813 5814 5814 5815 5815